Regional Weather Roundup
Issued by NWS

Home | Current Version | Previous Version | Text Only | Print | Product List | Glossary On
Versions: 1 2 3 4 5 6 7 8 9 10 11 12 13 14 15 16 17 18 19 20 21 22 23 24 25 26 27 28 29 30 31 32 33 34 35 36 37 38 39 40 41 42 43 44 45 46 47 48 49 50
000
ASUS45 KABQ 171410
RWRNM
NEW MEXICO REGIONAL WEATHER ROUNDUP
NATIONAL WEATHER SERVICE ALBUQUERQUE NM
800 AM MDT THU AUG 17 2017

NOTE: "FAIR" MEANS FEW OR NO CLOUDS BELOW 12,000 FEET AGL WITH NO
       SIGNIFICANT WEATHER OR OBSTRUCTIONS TO VISION.

      THIS PRODUCT IS RELEASED AS TWO VERSIONS.  ONE VERSION NEAR
      THE TOP OF THE HOUR CONTAINING PRELIMINARY DATA FROM ALBUQUERQUE
      AND OTHER STATIONS.  A FINAL VERSION WITH ADDITIONAL DATA IS
      ISSUED ABOUT 10 MINUTES AFTER THE HOUR.

NMZ501-503-504-510>518-171500-
NORTHWEST PLATEAU/NORTHCENTRAL MOUNTAINS

CITY           SKY/WX    TMP DP  RH WIND       PRES   REMARKS
FARMINGTON     FAIR      59  35  40 E8        30.24R
LOS ALAMOS     FAIR      64  38  38 SW3       30.35R
SANTA FE       FAIR      62  40  44 N3        30.30R
TAOS           PTSUNNY   56  39  53 NE5       30.38R
ANGEL FIRE     CLOUDY    49  43  80 CALM      30.46R

$$
NMZ402-403-502-505>509-171500-
WESTCENTRAL MOUNTAINS/SOUTHWEST MOUNTAINS

CITY           SKY/WX    TMP DP  RH WIND       PRES   REMARKS
GALLUP         FAIR      57  38  48 NE5       30.32R
GRANTS         FAIR      56  32  39 CALM      30.34R
SILVER CITY    FAIR      65  41  41 NW7       30.24R

$$
NMZ407-409-411-412-171500-
SOUTHERN DESERTS

CITY           SKY/WX    TMP DP  RH WIND       PRES   REMARKS
DEMING         FAIR      63  47  55 W3        30.17R
LAS CRUCES     FAIR      71  44  38 NW3       30.17R
HOLLOMAN AFB   FAIR      69  55  60 N5        30.16R
ALAMOGORDO     FAIR      72  48  43 CALM      30.15R
T OR C         FAIR      72  40  31 W9        30.19R

$$
NMZ519>523-171500-
CENTRAL VALLEYS/CENTRAL HIGHLANDS

CITY           SKY/WX    TMP DP  RH WIND       PRES   REMARKS
ALBUQUERQUE    FAIR      66  45  46 E5        30.24R
DOUBLE EAGLE   MOSUNNY   64  43  45 CALM      30.27R
MORIARTY ARPT  FAIR      59  51  74 N3        30.31R
CLINES CORNERS CLOUDY    59  50  72 E5        30.35R
BELEN          FAIR      71  40  32 NE3       30.23R
SOCORRO        FAIR      71  38  30 CALM      30.20R

$$
NMZ524>526-539-540-171500-
SOUTHCENTRAL MOUNTAINS

CITY           SKY/WX    TMP DP  RH WIND       PRES   REMARKS
RUIDOSO        FAIR      63  45  51 CALM      30.36R

$$
NMZ527>531-171500-
NORTHEAST HIGHLANDS/NORTHEAST PLAINS

CITY           SKY/WX    TMP DP  RH WIND       PRES   REMARKS
LAS VEGAS      CLOUDY    56  49  77 N3        30.35R
RATON          FAIR      61  54  77 CALM      30.31R
CLAYTON        FAIR      64  57  78 W3        30.23S

$$
NMZ532>537-171500-
EASTCENTRAL PLAINS

CITY           SKY/WX    TMP DP  RH WIND       PRES   REMARKS
SANTA ROSA     FAIR      65  56  70 CALM      30.20R
TUCUMCARI      FAIR      72  60  66 E8        30.15F
CANNON AFB     FAIR      68  68 100 E3        30.20R
CLOVIS AIRPORT FAIR      70  64  83 E3        30.19S HAZE

$$
NMZ028-029-538-171500-
SOUTHEAST PLAINS

CITY           SKY/WX    TMP DP  RH WIND       PRES   REMARKS
ROSWELL        FAIR      73  58  59 CALM      30.12R
ARTESIA        FAIR      75  57  53 CALM      30.12R
CARLSBAD       FAIR      73  67  81 NW3       30.09R
HOBBS          SUNNY     72  66  83 NE5       30.13R


$$



USA.gov is the U.S. government's official web portal to all federal, state and local government web resources and services.